Weather History for South Hill, VA

Change the Weather History Date:

Wednesday, September 26, 2012

  Actual Average (KEMV) Record (KEMV)
Temperature  
Mean Temperature 66 °F -  
Max Temperature 80 °F 73 °F 92 °F (1986)
Min Temperature 51 °F 52 °F 42 °F (1983)
Growing Degree Days 16 (Base 50)    
Moisture  
Dew Point 60 °F    
Average Humidity 78    
Maximum Humidity 100    
Minimum Humidity 57    
Precipitation  
Precipitation 0.00 in - - ()
Sea Level Pressure  
Sea Level Pressure 30.23 in    
Wind  
Wind Speed 4 mph (SSW)    
Max Wind Speed 10 mph    
Max Gust Speed -    
Visibility 10 miles    
Events      
Averages and records for this station are not official NWS values.
T = Trace of Precipitation, MM = Missing Value Source: NWS Daily Summary

Daily Weather History Graph

Daily Weather History Graph

Search for Another Location

Airport:

Trip Planner

Search our weather history database for the weather conditions in past years. The results will help you decide how hot, cold, wet, or windy it might be!

Date:

Astronomy

Sep. 26, 2012 Rise Set
Actual Time 7:03 AM EDT 7:02 PM EDT
Civil Twilight 6:37 AM EDT 7:28 PM EDT
Nautical Twilight 6:07 AM EDT 7:58 PM EDT
Astronomical Twilight 5:37 AM EDT 8:28 PM EDT
Moon 4:57 PM EDT (9/26) 3:32 AM EDT (9/26)
Length of Visible Light 12h 50m
Length of Day
11h 58m
Waxing Gibbous, 88% of the Moon is Illuminated
Sep 26
Waxing Gibbous
Sep 29
Full
Oct 8
Last Quarter
Oct 15
New
Oct 21
First Quarter

Hourly Weather History & Observations

Time (EDT) Temp. Heat Index Dew Point Humidity Pressure Visibility Wind Dir Wind Speed Gust Speed Precip Events Conditions
12:43 AM 55.4 °F - 55.4 °F 100% 30.24 in 10.0 mi SSW 3.5 mph - N/A   Clear
1:00 AM 55.4 °F - 55.4 °F 100% 30.23 in 10.0 mi Calm Calm - N/A   Clear
1:17 AM 55.4 °F - 55.4 °F 100% 30.24 in 10.0 mi Calm Calm - N/A   Clear
2:40 AM 53.6 °F - 53.6 °F 100% 30.24 in 10.0 mi Calm Calm - N/A   Clear
3:35 AM 51.8 °F - 51.8 °F 100% 30.23 in 10.0 mi Calm Calm - N/A   Clear
3:40 AM 51.8 °F - 51.8 °F 100% 30.22 in 10.0 mi Calm Calm - N/A   Clear
4:02 AM 51.8 °F - 51.8 °F 100% 30.23 in 10.0 mi Calm Calm - N/A   Clear
5:00 AM 53.6 °F - 53.6 °F 100% 30.22 in 10.0 mi Calm Calm - N/A   Clear
5:22 AM 51.8 °F - 51.8 °F 100% 30.21 in 10.0 mi Calm Calm - N/A   Clear
5:35 AM 51.8 °F - 51.8 °F 100% 30.21 in 10.0 mi SSW 3.5 mph - N/A   Clear
6:15 AM 53.6 °F - 53.6 °F 100% 30.23 in 10.0 mi SW 3.5 mph - N/A   Clear
6:17 AM 53.6 °F - 53.6 °F 100% 30.23 in 10.0 mi Calm Calm - N/A   Clear
7:17 AM 51.8 °F - 51.8 °F 100% 30.26 in 10.0 mi Calm Calm - N/A   Clear
7:43 AM 53.6 °F - 53.6 °F 100% 30.24 in 10.0 mi South 5.8 mph - N/A   Clear
8:41 AM 60.8 °F - 59.0 °F 94% 30.26 in 10.0 mi SSW 4.6 mph - N/A   Clear
9:00 AM 62.6 °F - 59.0 °F 88% 30.27 in 10.0 mi SSW 6.9 mph - N/A   Clear
9:17 AM 64.4 °F - 60.8 °F 88% 30.26 in 10.0 mi SW 8.1 mph - N/A   Clear
9:39 AM 66.2 °F - 57.2 °F 73% 30.26 in 10.0 mi SSW 8.1 mph - N/A   Clear
10:17 AM 69.8 °F - 60.8 °F 73% 30.26 in 10.0 mi SW 10.4 mph - N/A   Clear
11:00 AM 73.4 °F - 60.8 °F 65% 30.26 in 10.0 mi SSW 8.1 mph - N/A   Clear
11:17 AM 75.2 °F - 60.8 °F 61% 30.26 in 10.0 mi SSW 10.4 mph - N/A   Clear
11:35 AM 75.2 °F - 60.8 °F 61% 30.26 in 10.0 mi SW 9.2 mph - N/A   Clear
11:37 AM 75.2 °F - 60.8 °F 61% 30.26 in 10.0 mi SW 9.2 mph - N/A   Clear
11:57 AM 77.0 °F - 62.6 °F 61% 30.26 in 10.0 mi SSW 9.2 mph - N/A   Clear
12:19 PM 77.0 °F - 62.6 °F 61% 30.26 in 10.0 mi WSW 9.2 mph - N/A   Clear
12:40 PM 78.8 °F - 62.6 °F 57% 30.26 in 10.0 mi SW 8.1 mph - N/A   Clear
1:00 PM 78.8 °F - 62.6 °F 57% 30.25 in 10.0 mi WSW 8.1 mph - N/A   Clear
1:20 PM 78.8 °F - 62.6 °F 57% 30.24 in 10.0 mi SW 8.1 mph - N/A   Clear
1:35 PM 78.8 °F - 62.6 °F 57% 30.23 in 10.0 mi SSW 8.1 mph - N/A   Clear
1:37 PM 78.8 °F - 62.6 °F 57% 30.23 in 10.0 mi SSW 5.8 mph - N/A   Clear
1:57 PM 80.6 °F 82.3 °F 64.4 °F 58% 30.22 in 10.0 mi SW 4.6 mph - N/A   Clear
2:15 PM 80.6 °F 82.3 °F 64.4 °F 58% 30.22 in 10.0 mi South 4.6 mph - N/A   Clear
2:17 PM 80.6 °F 82.3 °F 64.4 °F 58% 30.22 in 10.0 mi South 6.9 mph - N/A   Clear
3:17 PM 80.6 °F 82.3 °F 64.4 °F 58% 30.21 in 10.0 mi South 6.9 mph - N/A   Clear
3:37 PM 80.6 °F 82.3 °F 64.4 °F 58% 30.20 in 10.0 mi South 9.2 mph - N/A   Clear
3:57 PM 80.6 °F 82.3 °F 64.4 °F 58% 30.20 in 10.0 mi South 8.1 mph - N/A   Clear
4:15 PM 80.6 °F 82.3 °F 64.4 °F 58% 30.20 in 10.0 mi South 5.8 mph - N/A   Clear
4:26 PM 80.6 °F 82.3 °F 64.4 °F 58% 30.20 in 10.0 mi SSW 8.1 mph - N/A   Clear
4:37 PM 80.6 °F 82.7 °F 66.2 °F 61% 30.20 in 10.0 mi South 6.9 mph - N/A   Clear
5:03 PM 80.6 °F 82.3 °F 64.4 °F 58% 30.20 in 10.0 mi SSW 8.1 mph - N/A   Clear
5:20 PM 78.8 °F - 66.2 °F 65% 30.20 in 10.0 mi South 6.9 mph - N/A   Clear
5:42 PM 78.8 °F - 66.2 °F 65% 30.20 in 10.0 mi South 6.9 mph - N/A   Clear
5:57 PM 77.0 °F - 66.2 °F 69% 30.21 in 10.0 mi South 4.6 mph - N/A   Clear
7:03 PM 71.6 °F - 66.2 °F 83% 30.22 in 10.0 mi Calm Calm - N/A   Clear
7:44 PM 66.2 °F - 66.2 °F 100% 30.22 in 10.0 mi Calm Calm - N/A   Clear
7:57 PM 66.2 °F - 66.2 °F 100% 30.22 in 10.0 mi South 3.5 mph - N/A   Clear
8:20 PM 66.2 °F - 66.2 °F 100% 30.22 in 10.0 mi South 3.5 mph - N/A   Clear
9:17 PM 64.4 °F - 64.4 °F 100% 30.23 in 10.0 mi Calm Calm - N/A   Clear
9:57 PM 62.6 °F - 62.6 °F 100% 30.24 in 10.0 mi Calm Calm - N/A   Clear